Temp
19 19 21 23 22 20 20 21 21 21 21 21 20 19 18 18 17 17 17 17 17 17 17 17 16 16 16 16 15 15 15 16 16 16 16 16 15 15 15 15 16 16 16
19 19 20 22 21 20 20 20 20 20 20 20 19 18 17 18 17 17 17 17 16 17 17 16 16 16 16 15 15 16 16 15 15 15 15 15 15 15 15 15 15 15 15
19 19 19 19 19 19 19 20 20 20 20 19 19 18 18 18 18 17 17 17 16 16 16 16 16 15 15 15 15 15 15 15 15 15 15 15 15 15 14 15 15 15 15
20 19 19 19 19 19 17 19 20 20 20 19 18 18 18 18 18 18 17 17 17 17 16 16 16 16 16 16 16 16 15 15 15 15 14 14 14 14 14 14 14 14 14
19 19 19 19 20 20 19 17 19 18 18 17 17 17 17 17 18 18 18 18 17 17 16 16 16 17 17 17 16 16 16 15 15 14 13 13 13 13 13 13 13 14 14
20 19 19 20 19 19 18 18 17 19 18 18 17 17 17 17 18 18 17 17 17 16 16 17 17 17 17 17 16 16 16 15 15 13 13 13 13 13 13 13 12 13 13
17 17 17 19 19 17 17 16 17 18 18 17 17 17 16 17 17 17 17 17 18 18 18 18 17 17 16 16 16 16 16 16 15 13 13 13 13 13 13 12 12 12 12
18 17 16 16 15 13 17 17 18 17 18 17 17 17 16 17 17 17 18 18 18 18 18 18 18 17 16 16 16 16 16 16 14 13 12 12 12 12 12 12 12 12 11
17 16 17 15 16 13 14 16 16 17 17 17 17 17 16 16 16 17 18 18 18 18 18 18 18 17 17 16 16 15 16 15 15 13 12 12 12 12 12 12 11 11 11
15 14 14 13 15 15 13 14 14 15 17 17 16 16 16 16 17 17 17 18 18 18 18 18 17 17 17 17 16 15 15 15 14 13 12 12 12 12 12 12 11 11 10
14 14 14 14 15 14 14 14 15 15 16 16 16 16 16 16 17 17 17 18 18 18 17 17 17 17 17 16 16 16 15 15 14 13 12 12 12 12 12 11 11 11 10
14 14 14 14 13 13 13 12 13 14 16 16 16 17 16 17 17 17 17 17 17 17 17 17 17 17 17 16 16 16 16 15 14 13 12 12 12 12 11 11 11 10 10
14 13 13 13 13 13 12 12 12 14 16 17 18 17 16 17 17 17 16 17 17 17 16 16 16 16 16 16 16 15 15 15 14 13 12 12 12 11 11 11 11 10 10
14 13 13 13 12 12 12 13 14 15 15 16 17 17 17 17 17 17 17 17 17 16 16 16 16 16 16 16 16 15 15 15 15 14 12 12 11 11 11 11 11 10 10
13 13 13 12 12 12 12 14 15 15 16 16 17 17 17 17 17 17 16 17 16 16 16 16 15 15 16 16 15 15 15 15 14 14 13 13 12 11 11 11 11 10 10
12 12 12 12 12 12 13 15 15 15 16 16 16 17 18 18 17 16 17 16 16 16 16 16 16 16 16 15 15 15 15 14 14 14 14 13 13 12 11 11 11 10 10
11 11 11 11 12 12 12 14 15 15 16 16 16 17 17 17 17 17 16 16 16 16 16 16 16 15 15 15 15 15 15 14 14 14 14 14 12 11 11 11 11 11 10
11 11 11 11 12 13 13 13 14 15 15 16 16 16 16 16 17 16 16 16 16 16 16 16 16 15 15 15 15 15 15 15 14 14 14 13 12 12 11 11 11 11 10
11 11 11 11 12 12 13 14 14 15 16 15 16 16 16 16 16 16 16 16 16 16 16 16 16 15 15 15 15 15 15 15 15 14 14 13 13 12 12 12 11 11 11
11 11 11 10 12 13 14 14 14 15 15 16 17 18 17 16 16 16 16 16 16 16 16 16 16 15 15 15 15 15 15 15 14 14 14 14 13 13 12 12 11 11 11
11 11 11 12 12 13 13 13 13 15 16 17 16 16 16 16 16 16 16 17 16 16 16 16 16 15 15 15 14 14 14 14 14 14 14 13 13 13 12 12 12 12 11
11 11 10 11 12 12 13 13 13 14 15 16 17 16 16 16 16 16 16 16 16 16 16 16 15 15 15 15 14 13 12 13 14 14 13 13 13 12 12 12 12 11 11
10 10 11 11 12 13 13 14 13 14 15 15 15 16 16 16 16 16 16 16 16 16 16 16 15 15 15 14 14 14 10 11 11 12 13 13 13 13 12 12 11 11 11
10 11 11 11 11 12 12 12 12 12 13 14 15 15 16 16 16 17 17 16 16 16 15 15 15 15 14 13 12 12 11 11 8 10 11 12 13 12 12 12 12 11 11
11 11 11 11 11 11 12 12 12 13 13 14 15 15 17 17 16 16 16 17 16 16 15 15 15 14 14 14 13 9 8 8 9 8 8 10 11 11 11 12 12 11 11
12 12 12 12 11 11 12 12 13 13 13 14 15 15 16 16 17 17 17 16 16 16 16 16 14 14 14 13 12 11 10 9 7 7 7 8 9 11 11 11 11 10 10
Height
785 784 782 780 791 799 801 800 800 800 797 797 800 801 803 809 813 816 819 821 824 828 832 833 835 835 837 838 840 841 843 843 846 846 846 847 846 846 847 847 848 847 847
781 786 784 784 782 798 799 802 802 804 803 802 801 804 805 809 815 819 821 823 828 832 834 835 837 839 840 842 843 844 846 847 848 849 849 850 849 849 850 851 851 852 851
782 787 790 791 790 795 803 801 802 806 807 807 805 805 805 809 814 821 825 826 830 833 837 839 841 842 844 845 846 848 847 849 849 851 851 853 853 853 854 853 855 855 855
779 783 787 791 786 790 800 803 802 805 805 806 806 805 807 810 814 819 825 829 832 835 838 841 843 844 846 847 847 849 850 852 852 854 852 855 856 857 857 857 858 858 858
781 781 781 785 792 782 785 804 801 804 807 810 810 808 809 812 814 820 824 829 835 837 840 844 845 847 847 849 850 851 852 852 854 855 855 858 859 861 860 860 861 862 862
777 775 779 778 787 789 787 794 800 802 805 807 813 814 814 814 817 823 826 830 836 840 843 844 848 849 848 851 852 854 855 855 855 857 859 861 862 864 864 864 864 865 866
772 773 777 786 791 787 784 793 794 798 804 807 815 816 818 816 819 825 830 832 838 842 845 847 850 851 851 853 854 857 857 857 857 860 862 864 866 867 868 868 868 869 870
769 773 776 779 785 776 783 789 789 793 802 810 815 819 821 819 822 827 832 834 838 843 847 849 852 855 855 856 858 859 859 860 860 863 866 868 870 870 871 872 872 873 873
770 771 774 773 778 790 785 774 789 790 799 807 816 821 822 821 826 829 834 837 840 845 848 851 854 857 858 858 860 862 862 863 863 865 869 872 873 873 875 874 876 876 876
770 772 775 779 787 772 789 788 798 802 801 810 816 820 824 822 830 832 838 838 842 848 851 854 856 858 860 860 860 863 865 866 866 868 870 874 876 876 877 876 879 880 881
778 774 771 774 777 780 779 804 796 810 811 810 814 820 823 825 830 837 841 841 843 849 854 855 857 859 861 862 864 865 867 868 869 869 871 874 876 878 880 881 881 881 882
779 781 780 776 778 782 789 796 798 809 813 809 813 817 822 828 832 837 843 843 845 848 855 857 859 861 863 866 867 867 869 870 871 872 873 876 877 878 881 882 883 885 884
783 784 784 784 784 785 789 798 809 799 807 811 816 819 825 830 835 838 843 843 847 850 855 857 861 864 866 868 868 869 871 872 872 874 876 877 879 881 882 884 885 886 886
782 782 785 787 789 793 799 804 805 802 806 807 813 822 827 832 836 839 842 844 847 853 854 859 861 866 868 869 869 870 873 874 874 875 876 878 879 882 883 885 887 888 887
783 784 784 787 789 793 799 801 802 803 803 809 816 823 828 832 838 839 842 844 847 854 855 859 863 867 869 869 871 872 874 875 875 876 877 879 880 883 885 886 886 887 887
784 784 783 788 789 792 795 796 798 802 808 814 820 823 826 832 836 840 842 844 850 853 855 859 863 864 868 869 872 873 875 875 876 877 878 880 881 883 885 886 886 887 887
784 784 783 785 789 792 796 798 803 807 811 815 821 824 827 833 837 840 843 846 851 853 855 859 863 864 867 869 871 872 874 875 877 878 878 880 880 882 883 885 885 886 886
786 787 788 788 791 795 800 804 807 809 811 816 823 828 829 834 837 841 843 847 850 852 854 858 861 863 865 868 869 871 872 874 876 878 878 880 881 882 882 884 883 884 884
787 789 790 791 796 800 805 807 811 813 815 820 824 828 829 833 838 840 843 846 847 850 852 856 858 861 863 865 867 868 871 873 874 875 876 878 879 880 880 881 883 881 881
789 790 791 793 796 801 805 809 813 815 815 820 821 823 828 833 837 839 840 842 844 848 851 853 856 858 860 862 864 866 867 869 871 871 872 875 876 877 878 878 879 879 879
788 790 792 794 797 801 804 808 812 813 814 818 820 824 830 833 836 837 837 839 842 845 847 850 854 855 857 859 861 865 863 865 867 868 868 870 871 873 874 876 877 877 877
784 789 793 795 798 802 803 806 810 811 813 816 819 823 828 830 832 832 833 836 839 842 845 847 850 851 854 857 858 862 863 865 864 865 867 868 867 869 870 871 872 874 873
782 784 788 792 794 798 800 803 808 811 815 815 817 818 823 825 827 828 831 834 835 838 841 842 845 847 849 853 855 858 861 860 861 860 862 863 865 866 866 866 866 867 868
776 780 784 788 792 796 800 803 805 807 809 811 813 818 819 822 825 826 828 830 831 834 835 838 840 843 847 849 851 852 854 857 860 861 860 860 861 862 861 863 863 863 863
774 777 783 787 790 791 794 797 800 803 806 808 811 813 815 818 820 822 824 825 826 829 830 833 835 838 841 843 844 848 850 853 854 857 858 858 858 857 858 858 859 859 859
769 775 779 783 785 789 792 795 797 800 803 805 807 810 812 813 815 816 819 820 822 824 826 827 830 834 835 837 839 843 842 846 849 851 854 854 855 854 854 854 855 855 855
Wind_Speed
20 21 26 30 20 19 19 20 24 26 30 32 34 37 39 38 37 36 35 34 33 30 29 30 31 30 30 30 30 30 30 30 29 27 26 25 25 25 25 24 25 26 26
19 19 23 27 31 23 21 22 24 25 28 32 36 37 38 38 36 35 36 35 32 30 29 29 29 30 30 29 33 32 29 28 29 28 28 26 26 27 26 26 25 24 25
22 19 22 25 29 22 20 25 26 27 28 32 36 37 38 38 37 36 34 34 32 30 29 29 28 27 25 25 24 28 25 29 29 26 26 26 24 24 25 26 24 24 24
27 26 25 27 33 30 17 26 30 29 30 35 37 37 39 39 38 37 35 33 32 30 28 27 26 27 28 24 20 19 21 22 23 25 28 25 23 21 22 23 23 23 24
30 20 28 32 27 32 40 26 31 31 33 34 36 37 39 39 39 37 36 34 31 29 26 25 27 26 22 24 28 26 22 20 22 24 25 25 23 20 21 22 22 22 21
32 28 31 37 41 35 33 31 31 32 35 37 35 36 37 38 38 36 35 33 30 27 26 28 26 25 23 28 26 24 21 21 24 25 26 24 23 21 21 22 21 21 20
16 17 18 31 29 35 44 40 37 37 37 37 36 35 36 38 38 36 34 33 30 28 27 26 25 26 26 29 25 23 23 23 24 25 25 24 21 20 20 21 21 22 22
16 17 26 28 15 31 32 43 43 39 41 38 37 35 36 38 36 35 33 32 30 28 25 24 24 26 26 21 22 22 23 23 24 25 24 23 20 20 21 21 21 21 21
19 22 21 18 9 23 40 35 38 41 45 41 36 36 35 36 34 34 32 31 29 26 24 23 24 24 25 21 20 21 21 21 23 23 23 21 19 20 20 21 21 21 21
23 15 10 15 12 20 19 26 22 29 41 39 37 36 34 35 32 32 30 30 28 26 24 23 24 22 23 22 20 19 19 19 21 21 22 19 18 18 19 19 19 19 19
7 8 7 7 14 21 18 25 28 15 32 36 37 36 34 34 33 30 29 30 29 27 25 25 21 19 22 22 19 18 17 17 17 19 20 19 18 17 17 17 17 17 18
8 13 19 22 27 29 29 31 39 30 27 35 36 36 34 34 33 32 29 29 29 29 25 23 19 17 15 16 17 17 14 15 15 16 18 18 17 16 16 16 15 15 15
7 19 19 25 28 31 39 33 29 37 31 30 32 35 35 34 32 32 30 28 27 25 21 17 15 14 14 13 15 15 13 14 13 13 16 17 16 14 14 14 14 13 13
11 22 28 26 35 34 35 38 37 36 38 40 38 34 35 35 32 31 29 27 24 20 19 16 14 11 11 12 12 13 10 10 10 12 13 13 14 13 12 12 11 11 11
13 19 30 36 36 36 36 39 37 35 34 36 38 36 35 34 30 30 28 26 23 17 15 14 12 12 11 13 11 8 9 9 10 10 9 8 10 11 10 10 10 10 8
14 21 28 33 33 36 36 40 34 32 35 35 35 35 35 33 30 29 25 23 20 16 14 12 9 9 9 8 9 9 8 8 8 8 6 6 9 12 12 11 10 8 6
16 20 24 33 33 37 31 38 35 35 37 31 31 30 31 28 27 23 22 21 18 15 12 11 9 10 10 9 9 9 7 6 7 7 6 7 14 14 14 11 10 8 7
17 22 26 33 34 35 41 39 30 34 36 33 28 26 25 23 21 21 19 19 17 12 14 13 13 12 14 12 10 11 9 8 6 6 8 10 14 16 14 12 12 11 10
17 21 20 26 33 32 36 34 29 32 33 25 26 23 19 18 19 20 18 18 16 15 19 18 15 17 17 14 13 12 14 11 10 10 9 11 12 14 14 14 14 12 10
17 22 22 24 33 39 37 35 31 29 27 27 26 25 14 17 19 20 17 16 15 20 22 20 18 20 17 16 16 18 17 17 16 14 15 14 14 15 15 16 16 13 12
20 21 26 31 32 38 35 33 33 32 30 33 24 20 18 22 23 23 20 18 19 24 24 22 21 21 20 16 14 17 20 20 19 20 21 20 17 17 17 16 15 15 14
27 28 28 31 35 36 35 31 30 34 33 35 29 23 23 24 24 20 22 24 24 25 24 24 25 23 21 20 11 5 2 9 20 23 21 20 19 18 20 20 19 20 18
30 32 34 36 38 38 39 36 33 34 32 31 30 34 33 24 24 25 26 26 28 26 27 27 26 26 24 21 20 7 2 4 2 10 25 21 19 21 21 22 22 21 20
33 34 32 35 40 40 38 35 31 30 28 33 32 33 32 27 28 30 29 29 30 29 28 29 29 29 27 23 11 16 10 5 3 1 4 12 20 23 24 24 23 23 23
32 33 31 32 36 38 40 37 36 29 29 28 33 34 35 35 31 35 34 31 32 33 31 30 33 32 30 27 25 13 17 13 10 3 3 7 10 14 20 21 21 25 25
32 33 33 34 35 37 38 38 36 32 29 27 32 35 38 39 39 37 38 37 35 33 32 33 31 30 29 30 29 26 17 10 9 6 4 9 8 14 15 12 16 15 16
Wind_Direction
167 165 162 153 153 171 164 148 141 137 133 130 128 127 123 123 124 122 120 115 112 110 110 106 103 101 98 98 97 98 101 99 94 92 90 87 86 84 83 81 80 82 84
169 170 163 166 164 177 167 155 144 139 137 136 134 129 126 125 124 122 117 113 111 111 111 108 104 102 102 102 100 97 100 103 100 95 92 87 85 85 84 82 82 85 79
159 167 173 168 165 175 175 159 151 149 143 138 135 131 129 128 126 121 116 113 112 111 111 109 106 103 103 108 113 107 93 101 100 96 92 85 86 84 83 85 86 85 85
167 169 175 176 167 160 203 167 161 157 149 145 138 135 133 132 130 126 122 119 116 114 114 112 110 105 104 104 116 137 121 107 105 104 96 92 88 85 87 86 84 85 83
172 170 171 181 196 181 186 189 165 154 146 141 138 138 135 133 130 127 125 122 119 117 116 116 114 107 100 113 110 121 118 106 103 100 95 92 89 88 87 87 87 87 85
228 235 228 202 181 196 213 186 163 154 150 143 144 141 137 135 131 129 126 124 122 119 121 123 115 97 101 121 116 111 103 103 100 97 95 92 89 88 87 88 90 92 87
186 183 177 184 197 190 171 174 166 154 149 144 148 144 139 137 133 131 128 126 124 122 121 121 113 96 103 120 113 106 100 98 98 98 97 95 91 90 89 90 90 88 86
181 139 113 117 28 17 180 174 167 157 153 149 150 145 140 138 135 133 130 126 124 121 121 122 115 100 94 121 116 108 100 95 96 100 99 96 95 93 93 93 91 90 88
148 135 125 106 102 18 349 153 150 149 152 149 149 146 142 138 137 131 128 124 120 118 116 119 119 106 92 110 129 114 105 97 97 104 104 102 101 98 99 95 93 91 89
133 129 151 134 113 31 67 72 117 150 150 149 146 144 142 137 135 130 128 122 117 113 109 111 114 107 92 92 133 125 112 105 101 105 108 107 103 100 100 99 95 93 89
94 123 173 182 127 131 132 156 137 145 148 144 147 145 142 137 136 131 128 122 117 113 113 114 112 109 94 87 114 126 117 110 103 108 114 114 109 105 105 105 104 102 97
108 121 143 144 148 150 146 145 148 152 150 148 149 152 143 143 139 135 132 126 122 122 119 115 116 119 111 100 114 128 119 116 108 109 120 120 117 116 116 115 113 107 106
152 149 150 147 151 156 147 148 160 154 160 159 160 154 147 144 143 140 137 130 130 125 125 117 118 115 110 115 108 124 124 125 113 115 125 129 124 124 123 125 125 118 108
154 154 156 162 152 153 157 157 159 162 158 155 158 153 151 150 150 145 140 137 130 133 125 125 116 118 123 130 112 117 129 128 122 123 135 137 136 136 137 137 135 132 122
154 155 159 160 163 157 158 159 152 150 148 149 152 159 157 154 153 152 149 143 139 141 132 127 132 141 128 121 124 128 137 142 141 133 133 149 151 155 155 153 152 148 130
149 160 156 160 161 161 164 159 151 153 156 156 161 159 156 160 159 159 152 150 156 158 142 140 150 148 138 130 144 144 145 142 154 152 144 163 185 179 176 171 171 169 163
154 156 154 160 164 167 169 169 163 162 161 153 155 158 159 159 161 161 162 162 169 164 149 159 164 164 167 160 164 167 161 155 171 170 179 197 197 195 188 185 187 189 191
167 161 162 166 166 169 166 169 160 155 152 150 154 154 157 165 167 170 166 176 179 176 178 184 186 189 194 193 179 171 174 186 199 210 205 204 203 204 202 206 203 203 208
170 163 158 159 166 164 171 165 156 152 155 155 156 160 156 163 176 177 183 187 192 187 191 196 203 203 201 207 205 194 195 208 212 220 219 209 208 212 216 221 230 229 238
170 173 158 154 157 167 168 171 169 163 158 169 174 168 177 193 198 196 195 190 196 197 196 202 211 205 217 220 219 216 212 216 211 214 217 218 218 222 229 227 226 231 237
174 169 168 167 170 172 173 174 176 178 172 175 181 182 207 210 208 205 202 206 211 209 210 217 217 218 220 219 216 222 218 214 221 224 213 212 223 233 233 243 249 250 245
182 183 179 180 181 182 179 182 184 187 189 190 197 205 226 223 218 215 219 218 214 215 218 224 221 223 225 221 205 176 200 245 240 232 225 224 228 227 222 229 234 238 241
190 191 192 189 188 191 193 196 192 194 203 211 221 221 234 233 225 224 225 223 227 223 226 228 226 229 226 225 219 203 141 200 284 236 229 228 240 244 240 242 237 242 245
196 194 196 195 197 199 197 193 192 197 204 212 218 229 236 233 230 227 232 234 231 230 232 235 235 227 226 225 200 220 208 157 152 282 244 247 254 243 243 241 241 245 251
194 195 196 197 200 199 199 201 198 203 209 213 221 227 232 235 234 232 233 235 234 236 238 241 238 229 231 230 222 198 191 181 174 149 220 264 271 245 249 248 251 255 253
191 193 195 196 202 201 201 201 202 207 213 217 222 226 232 233 234 234 234 232 236 239 241 241 237 232 234 230 232 227 207 189 189 176 205 232 246 267 256 263 262 263 272